Location: F?ge?el
(45.8833°N, 22.5833°E)
Time: 07:44:36
(UTC+00:00)

Cosmos 1954 Rocket - Pass Details

Date: 17 November 2025
Orbit: 749 x 776 km, 74.0° (Epoch: 13 December)

Event Time Altitude Azimuth Distance (km) Brightness Sun altitude
Rises 17:03:47 0° 203° (SSW) 3,237 7.6 -22.0°
Reaches altitude 10° 17:06:10 10° 204° (SSW) 2,312 6.8 -22.5°
Maximum altitude 17:11:26 81° 292° (WNW) 785 4.0 -23.4°
Enters shadow 17:14:07 30° 16° (NNE) 1,362 5.1 -23.8°
